◎2008年回帰の彗星



   8P/Tuttle

Epoch 2008 Jan. 15.0 TT = JDT 2454480.5  

T 2008 Jan. 27.00924 TT                                 Nakano

q   1.0271397            (2000.0)            P               Q

n   0.07239129     Peri.  207.50676     -0.27030500     -0.50619180

a   5.7017979      Node   270.34162     +0.96276102     -0.13757350

e   0.8198569      Incl.   54.98286     +0.00513964     -0.85137735

P  13.62

From 101 observations 1912-1992, mean residual 1".31.

   Nongravitational parameters A1 = +0.04 +/- 0.01, A2 = +0.0131 +/- 0.0000.

Residuals in seconds of arc 

1912/                     670210 056 (4.7+  3.3-)   801201 386  0.2-  0.0   

121107 806  1.4-  0.3+    670210 056  0.1+  2.2-    801201 386  0.1+  1.2+  

121109 839  1.7+  1.2-    670218 020 (5.6-  5.0+)   801202 491 (2.2+  6.3-) 

121110 839 (2.9+  0.1+)   670301 056  1.9-  1.8-    801202 323  1.4+  0.1-  

121115 806  1.9+  2.4+    670301 056 (1.7-  3.8+)   801203 056 (6.9+ 12.5-) 

121119 839  1.0-  1.7-    670301 056  1.7-  0.5+    801205 474  1.2+  0.7+  

121120 839  0.7+  0.9-    670304 075 (8.2-  1.3+)   801205 474  1.1-  1.1+  

121130 806 (1.3-  5.6-)   670304 075 (8.8-  0.4+)   801205 474  0.1+  1.2+  

121201 839 (3.9-  0.2-)   670310 056 (4.2-  2.0-)   801205 882  1.1-  0.3+  

121202 839  1.0+  0.6+    670310 056  2.5-  2.1-    801205 882  1.2-  0.7+  

121202 806 (2.2+  2.9+)   670310 056  0.1+  1.0-    801209 415 (2.6-  7.7+) 

121202 839  2.0-  0.9+    670311 020 (7.6-  3.1+)   801211 415  0.1-  1.5+  

121203 839  1.5-  0.3+    670311 020 (6.1-  7.5+)   801213 882  0.0   1.1-  

121208 839  1.3+  0.8-    670315 020 (2.8-  3.5-)   801213 882  2.3-  1.4-  

121213 806 (2.9-  3.1+)   670315 020  1.2-  0.7+    801214 323 (9.8-  0.8+) 

121216 839  2.5-  0.1+    670405 020 (2.8+  6.2+)   801215 323  2.2+  1.1-  

121216 806 (0.5+  4.2-)   670504 076 (4.9-  4.3+)   801217 323  0.7-  0.4-  

121217 806 (3.9+  1.0-)   670504 076 (7.6-  4.5+)   801219 415  0.1+  0.9-  

121218 839 (2.9+  4.4-)   670607 076 (5.8-  5.7+)   801219 415  0.1-  1.4+  

121220 839  1.3+  1.4+    670607 076(10.2-  7.6+)   801220 415 (0.1+  4.9+) 

121222 839  1.4-  2.0-    1980/                     801222 323 (4.3+  0.3+) 

1913/                     800714 801  0.0   0.8+    801226 809  0.6-  1.9+  

130103 806  2.2+  1.4-    800718 801 (3.5-  2.2+)   801227 809  0.4-  0.7+  

1926/                     800719 801  2.6-  0.5+    801228 809  1.0+  0.9+  

260112 029 (3.3-  1.5+)   801004 372 (0.7-  2.9+)Y  801229 809  0.8-  0.0   

260211 754 (2.9-  0.9+)   801008 372 (3.6+  1.8+)Y  801230 415  2.1+  1.1-  

260306 754  2.1+  0.1+    801102 056  1.9+  2.6-    801231 415  1.4+  0.1+  

260310 029 (1.8-  3.8+)   801102 056 (5.2+  6.2-)   1981/                   

260312 020 (0.1+ 10.0-)   801103 993 (7.6+  8.6-)   810101 415 (3.0+  1.8+) 

260313 754 (4.6+  0.3-)   801103 056 (1.2-  4.2-)   810102 809  0.6-  1.5-  

260313 020(13.4+  2.4+)   801106 210 (1.2+  9.1-)   810102 415  2.2+  2.5-  

260315 029  0.0   0.0     801106 210 (3.1+  6.3-)   810103 809  0.4-  0.3-  

1939/                     801108 210 (2.5+  9.2-)   810104 809  1.8-  0.4+  

390812 662  1.9+  0.4+    801108 056 (0.7+  4.1-)   810105 809  0.8+  1.2-  

390812 662  2.1+  0.2-    801109 056 (2.5+  5.9-)   810105 323 (6.2+  3.2+) 

390818 662  2.2+  0.1-    801111 056 (5.0+  2.1-)   810106 809  0.3+  0.1-  

390818 662 (3.0+  0.0 )   801111 509 (2.4+  9.2-)   810107 809  0.2-  0.9+  

390918 754  2.7+  0.2-    801111 509 (2.2+  3.4-)   810108 809  0.2-  1.5+  

391014 662  1.5+  0.7-    801111 509 (0.6+  3.3-)   810108 474  0.1+  0.6-  

391015 754 (3.0+  0.4+)   801111 210  2.1+  1.4-    810108 474  0.1+  0.1+  

391016 662  1.6+  0.6+    801111 210 (6.0+  5.4-)   810109 809  2.4-  0.9+  

391018 754  0.1-  2.0+    801112 056  1.4-  0.2+    810113 415  1.3-  2.4-  

391020 754  0.8+  0.8+    801112 056  2.1+  1.5+    810113 323 (4.1+  0.5-) 

391110 078 (2.1+  4.8+)   801113 372 (3.4+  0.4-)Y  810114 415  2.0+  1.9+  

391110 078 (1.4-  4.0+)   801114 056 (4.4+  5.8+)   810114 323 (1.1+  2.8-) 

391111 754 (0.8-  3.9+)   801114 491 (3.6+  2.2-)   810116 415  2.7+  1.4+  

391113 078  0.8+  1.7+    801114 509 (7.3+ 10.7-)   810117 415  2.4+  0.2+  

391113 078  1.1+  1.0-    801114 509 (4.2+  6.5-)   810121 323 (2.9+  2.9-) 

391113 754 (0.5+  3.0+)   801114 882  1.0-  0.3+    810122 323  1.8+  2.7-  

391121 078  0.6+  2.2+    801114 882 (4.1-  0.4+)   810126 415 (4.9+  0.2+) 

391130 078  1.3+  1.1+    801115 491  0.6+  2.0-    810127 323 (0.8-  4.1-) 

391130 078  0.9+  1.6-    801115 210 (4.5+  0.1+)   810209 323  1.1-  0.3-  

391209 078  2.1-  1.1+    801115 210 (6.7+  1.7-)   810212 323 (0.4+  3.5-) 

391211 078 (6.1-  1.4-)   801115 210 (3.2+  4.2-)   810223 415 (5.2-  1.9+) 

391221 078  0.7-  0.2+    801117 688 (3.0+  3.6-)   810228 415 (5.0+  1.9+)Y

1967/                     801118 882  1.1-  0.6+    810228 323 (1.1+  8.5+) 

670107 693  0.2-  0.0     801118 882  1.9-  0.1-    810312 415 (4.6+  1.3-) 

670107 693  0.3-  0.3-    801119 509 (1.6+  7.7-)   810402 474 (2.8-  1.3+) 

670114 020  1.6+  0.3-    801120 006(16.0-  4.5-)   810402 474  1.6-  1.4+  

670114 020  2.5+  1.3-    801120 509 (3.0+  2.1-)   810403 474  1.4-  2.4-  

670115 075 (3.9-  5.9-)   801120 006 (3.5-  8.3-)   810502 474  1.2-  2.0+  

670130 075 (4.6-  5.2-)   801123 509(12.1+ 11.3-)   810502 474  0.6-  1.7+  

670130 075 (9.4-  5.6-)   801126 323  0.7-  0.3+    1992/                   

670201 020 (5.5-  0.3-)   801127 323  0.2-  0.4-    920729 950 (3.8-  2.6-) 

670201 020 (7.9-  1.0-)   801128 509 (4.8+ 30.0-)   920729 950  0.1+  1.0+  

670203 488 (2.2-  7.0-)   801129 509 (9.5- 20.4+)   920729 950  0.1+  1.1+  

670203 488 (3.1+  7.5-)   801129 415  1.4-  0.9-    920730 950  1.2-  0.7+  

670206 020 (6.9-  0.2+)   801129 415 (1.9+  3.5+)   920731 950  0.2-  1.0+  

670206 020  0.1-  0.9+    801201 386  0.2+  0.3+                            





  46P/Wirtanen

Epoch 2008 Jan. 15.0 TT = JDT 2454480.5  

T 2008 Feb. 2.49060 TT                                  Nakano

q   1.0574859            (2000.0)            P               Q

n   0.18116991     Peri.  356.34753     +0.19766614     -0.95932287

a   3.0932285      Node    82.17479     +0.90445663     +0.09919230

e   0.6581287      Incl.   11.73923     +0.37800304     +0.26431139

P   5.44

From 527 observations 1991-2003, mean residual 0".86.

   Nongravitational parameters A1 = +0.36 +/- 0.01, A2 = -0.1406 +/- 0.0001.

Residuals in seconds of arc 

1991/                     970212 950  0.0   0.0     020814 B18  0.7+  0.6+  

910708 372 (0.2-  4.9+)Y  970212 950  0.6-  0.5-    020814 B18  0.6+  0.3+  

910708 372 (3.5-  0.0 )Y  970212 950  0.0   0.5-    020814 B18  1.4+  0.5+  

910708 372  2.1-  0.2- Y  970212 950  0.3-  0.5-    020814 B18  0.3+  0.6+  

910708 372 (5.3-  3.8-)Y  970212 950  0.8-  0.6-    020814 235  0.9+  2.1+  

910709 372 (4.8-  3.1-)   970212 950  1.5-  1.6-    020814 613  0.0   0.4+  

910709 372  1.3-  1.5-    970213 711  0.0   0.9-    020814 613  0.4+  0.2+  

910816 657  0.0   1.3-    970213 711  0.3+  0.7-    020815 613  0.9-  0.7+  

910816 657  0.4-  0.6+    970214 950  1.0-  0.8-    020815 613  0.2-  0.6+  

910905 657  0.8+  0.8+    970214 950  0.8-  0.3-    020815 613  0.2+  0.8+  

910905 657  0.8+  0.7+    970214 950  1.4-  0.6-    020818 213  0.1-  0.6-  

911005 056  0.2+  2.0+    970214 950  1.5-  0.7-    020818 213  0.3+  0.6-  

911005 056  0.2+  0.3-    970214 950  1.6-  1.3-    020819 B18  0.8+  0.5+  

911008 056  0.1+  2.0-    970214 950  1.2-  1.5-    020819 B18  0.9+  0.6+  

911017 056  1.6+  2.2-    970214 950  2.0-  0.9+    020819 B18  0.7+  0.6+  

911017 056 (3.0+  1.0-)   970223 897  0.3+  1.0-    020819 B18  0.5+  0.7+  

911109 900 (9.7+  3.2+)   970223 897  0.1+  1.1-    020819 B18  0.6+  0.0   

911109 900 (4.6-  0.5-)   970224 360  0.5-  1.2-    020819 B18  1.0+  0.5+  

911110 411 (6.9+  0.9+)   970224 360  0.5-  0.9-    020819 B18  0.8+  0.4+  

911110 411  1.0+  0.9-    970302 057 (1.1+  2.2+)   020819 B18  1.2+  0.2+  

911206 411 (4.3+  0.2+)   970305 897  0.1-  1.1-    020819 B18  1.5+  0.1+  

1995/                     970305 897  0.5+  1.1-    020819 B18  0.6+  0.3+  

950626 809  1.3+  0.9-    970307 360  0.7-  0.3-    020819 B18  1.7+  0.3+  

1996/                     970307 360  0.4-  0.3-    020819 B18  0.6+  0.6+  

960320 809  0.5-  0.0     970307 605  1.8+  0.9+    020819 B18  0.9+  0.4+  

960425 809  0.8+  0.6+    970307 605 (2.2+  0.2-)   020819 B18  1.4+  0.2+  

960425 809  1.5+  1.3+ Y  970309 046  0.1-  0.5-    020820 B18  0.5+  0.6+  

960425 809  0.5+  1.0- Y  970309 046  1.1-  0.7-    020820 B18  1.6+  0.7+  

960425 809  0.4-  0.4+    970309 046  0.2-  0.8-    020820 B18  0.7+  0.6+  

960425 809  0.1-  0.5+    970317 711  0.8+  0.7-    020820 B18  0.8+  0.7+  

960425 809  0.7-  0.7+    970317 711  0.9+  0.6-    020820 B18  0.7+  0.6+  

960511 809  0.0   0.4+    970317 711  1.1+  0.5-    020820 349  0.2-  0.8+  

960511 809  0.4-  0.3+    970317 711  1.0+  0.8-    020820 349  0.1+  0.2+  

960511 809  0.2-  0.2+    970322 605 (3.3+  0.4+)   020820 349  0.0   0.5+  

960511 809  0.4-  0.0     970322 605 (3.1+  0.5-)   020820 349  0.4+  0.6+  

960512 809  0.5-  0.4+    970322 605  1.5+  0.0     020827 349  0.3+  0.4+  

960512 809  0.1-  0.2+    970423 897  0.3+  0.5-    020827 349  0.1+  0.0   

960512 809  0.2-  0.3+    970423 897  1.9+  0.7-    020827 349  0.3+  0.1+  

960512 809  0.1-  0.3+    970423 897  1.3+  0.5-    020828 349  0.2-  1.0+  

960513 809  0.2+  0.4+    970423 118  1.1+  0.4-    020828 349  0.1-  1.1+  

960513 809  0.0   0.3+    970423 118  0.6+  0.5-    020828 349  0.0   0.8+  

960513 809  0.0   0.2+    970423 118  0.8+  0.4-    020828 349  0.1+  0.9+  

960513 809  0.0   0.0     970424 118  0.2+  0.1-    020830 349  0.1-  0.7+  

960613 568  0.7-  1.1+    970424 118  0.6-  0.3+    020830 349  0.2-  0.5+  

